Terminal Aerodrome Forecast
Issued by NWS Medford, OR

Home | Current Version | Previous Version | Text Only | Print | Product List | Glossary On
Versions: 1 2 3 4 5 6 7 8 9 10 11 12 13 14 15 16 17 18 19 20 21 22 23 24 25 26 27
000
FTUS46 KMFR 131622 AAD
TAFMFR
TAF AMD
KMFR 131622Z 1316/1412 00000KT 1SM BR BKN003
     FM131700 00000KT 4SM BR SCT003
     FM131800 00000KT P6SM SKC=

USA.gov is the U.S. government's official web portal to all federal, state and local government web resources and services.